When you browse on this site, cookies collect data to enhance your experience and personalize the content and advertising you see.
Visit our Privacy Policy to learn more. By continuing to use the site, you agree to this use of cookies and data.
  • In Österreich
  • Länderverzeichnis
  • Für 7 Tage
  • Wassertemperatur
  • Wetterkarte
  • News
  • Widgets
  • user-avatar
    Anmelden

    Stündliche Wetter Nocaima

    Heute, 17 Januar, Freitag

    Zeit Temperatur Niederschläge Wind Luftdruck Luftfeuchtigkeit
    00:00 +21°C° 0 mm 2 m/S 670 mmHg 74%
    01:00 +21°C° 0 mm 2 m/S 669 mmHg 81%
    02:00 +21°C° 0.2 mm 2 m/S 669 mmHg 80%
    03:00 +21°C° 0.2 mm 2 m/S 669 mmHg 79%
    04:00 +20°C° 0.2 mm 2 m/S 669 mmHg 77%
    05:00 +21°C° 0 mm 2 m/S 669 mmHg 77%
    06:00 +21°C° 0 mm 2 m/S 670 mmHg 76%
    07:00 +23°C° 0 mm 2 m/S 670 mmHg 75%
    08:00 +25°C° 0 mm 2 m/S 671 mmHg 66%
    09:00 +28°C° 0 mm 2 m/S 672 mmHg 57%
    10:00 +31°C° 0 mm 2 m/S 673 mmHg 49%
    11:00 +31°C° 0 mm 2 m/S 672 mmHg 46%
    12:00 +32°C° 0 mm 2 m/S 671 mmHg 44%
    13:00 +34°C° 0 mm 2 m/S 671 mmHg 42%
    14:00 +34°C° 0 mm 2 m/S 670 mmHg 44%
    15:00 +32°C° 0 mm 2 m/S 669 mmHg 46%
    16:00 +32°C° 0 mm 2 m/S 669 mmHg 48%
    17:00 +29°C° 0 mm 2 m/S 669 mmHg 56%
    18:00 +27°C° 0 mm 1 m/S 669 mmHg 65%
    19:00 +25°C° 0 mm 1 m/S 669 mmHg 73%
    20:00 +24°C° 0 mm 2 m/S 670 mmHg 73%
    21:00 +24°C° 0 mm 2 m/S 670 mmHg 72%
    22:00 +24°C° 0 mm 2 m/S 671 mmHg 72%
    23:00 +24°C° 0 mm 2 m/S 671 mmHg 71%

    Morgen, 18 Januar, Samstag

    Zeit Temperatur Niederschläge Wind Luftdruck Luftfeuchtigkeit
    00:00 +24°C° 0 mm 1 m/S 670 mmHg 69%
    01:00 +24°C° 0 mm 1 m/S 670 mmHg 68%
    02:00 +24°C° 0 mm 1 m/S 670 mmHg 69%
    03:00 +24°C° 0 mm 1 m/S 670 mmHg 69%
    04:00 +24°C° 0 mm 1 m/S 669 mmHg 69%
    05:00 +24°C° 0 mm 1 m/S 670 mmHg 70%
    06:00 +24°C° 0 mm 1 m/S 670 mmHg 71%
    07:00 +24°C° 0 mm 1 m/S 670 mmHg 72%
    08:00 +26°C° 0 mm 1 m/S 671 mmHg 64%
    09:00 +29°C° 0 mm 2 m/S 672 mmHg 56%
    10:00 +31°C° 0 mm 2 m/S 673 mmHg 47%
    11:00 +31°C° 0 mm 2 m/S 672 mmHg 46%
    12:00 +32°C° 0 mm 2 m/S 671 mmHg 45%
    13:00 +32°C° 0 mm 2 m/S 670 mmHg 45%
    14:00 +32°C° 0 mm 2 m/S 669 mmHg 47%
    15:00 +31°C° 0 mm 2 m/S 669 mmHg 50%
    16:00 +31°C° 0 mm 1 m/S 668 mmHg 52%
    17:00 +29°C° 0 mm 1 m/S 668 mmHg 59%
    18:00 +27°C° 0 mm 1 m/S 668 mmHg 66%
    19:00 +25°C° 0 mm 1 m/S 668 mmHg 73%
    20:00 +25°C° 0 mm 1 m/S 669 mmHg 73%
    21:00 +25°C° 0 mm 1 m/S 670 mmHg 74%
    22:00 +24°C° 0 mm 1 m/S 670 mmHg 74%
    23:00 +24°C° 0 mm 1 m/S 670 mmHg 74%

    übermorgen, 19 Januar, Sonntag

    Zeit Temperatur Niederschläge Wind Luftdruck Luftfeuchtigkeit
    00:00 +24°C° 0 mm 2 m/S 670 mmHg 74%
    01:00 +23°C° 0 mm 2 m/S 669 mmHg 73%
    02:00 +23°C° 0 mm 1 m/S 669 mmHg 73%
    03:00 +23°C° 0 mm 1 m/S 669 mmHg 72%
    04:00 +23°C° 0 mm 1 m/S 669 mmHg 72%
    05:00 +23°C° 0 mm 1 m/S 669 mmHg 72%
    06:00 +23°C° 0 mm 1 m/S 670 mmHg 72%
    07:00 +24°C° 0 mm 1 m/S 670 mmHg 73%
    08:00 +26°C° 0 mm 1 m/S 671 mmHg 65%
    09:00 +28°C° 0 mm 1 m/S 671 mmHg 58%
    10:00 +31°C° 0 mm 1 m/S 672 mmHg 50%
    11:00 +31°C° 0.1 mm 1 m/S 671 mmHg 49%
    12:00 +32°C° 0.1 mm 1 m/S 670 mmHg 49%
    13:00 +32°C° 0.1 mm 2 m/S 670 mmHg 48%
    14:00 +32°C° 0.1 mm 1 m/S 669 mmHg 49%
    15:00 +32°C° 0.1 mm 1 m/S 668 mmHg 50%
    16:00 +31°C° 0.1 mm 1 m/S 667 mmHg 51%
    17:00 +29°C° 0.2 mm 1 m/S 668 mmHg 61%
    18:00 +27°C° 0.2 mm 1 m/S 668 mmHg 71%
    19:00 +25°C° 0.2 mm 1 m/S 668 mmHg 80%
    20:00 +25°C° 0.2 mm 1 m/S 669 mmHg 81%
    21:00 +24°C° 0.2 mm 1 m/S 669 mmHg 82%
    22:00 +24°C° 0.2 mm 1 m/S 670 mmHg 83%
    23:00 +23°C° 0.5 mm 1 m/S 670 mmHg 84%

    20 Januar, Montag

    Zeit Temperatur Niederschläge Wind Luftdruck Luftfeuchtigkeit
    00:00 +23°C° 0.5 mm 1 m/S 669 mmHg 85%
    01:00 +21°C° 0.5 mm 2 m/S 669 mmHg 86%
    02:00 +21°C° 0.6 mm 2 m/S 669 mmHg 87%
    03:00 +21°C° 0.6 mm 1 m/S 668 mmHg 87%
    04:00 +21°C° 0.6 mm 1 m/S 668 mmHg 87%
    05:00 +21°C° 0.5 mm 1 m/S 669 mmHg 86%
    06:00 +22°C° 0.5 mm 1 m/S 669 mmHg 85%
    07:00 +22°C° 0.5 mm 1 m/S 670 mmHg 84%
    08:00 +24°C° 0.5 mm 1 m/S 670 mmHg 79%
    09:00 +26°C° 0.5 mm 1 m/S 671 mmHg 74%
    10:00 +28°C° 0.5 mm 1 m/S 672 mmHg 68%
    11:00 +28°C° 0.8 mm 1 m/S 671 mmHg 71%
    12:00 +28°C° 0.8 mm 1 m/S 670 mmHg 73%
    13:00 +28°C° 0.8 mm 1 m/S 670 mmHg 75%
    14:00 +28°C° 1.5 mm 1 m/S 669 mmHg 77%
    15:00 +27°C° 1.5 mm 1 m/S 669 mmHg 80%
    16:00 +27°C° 1.5 mm 1 m/S 668 mmHg 83%
    17:00 +26°C° 1.7 mm 1 m/S 668 mmHg 86%
    18:00 +25°C° 1.7 mm 1 m/S 668 mmHg 90%
    19:00 +22°C° 1.7 mm 0 m/S 669 mmHg 93%
    20:00 +23°C° 1 mm 1 m/S 669 mmHg 93%
    21:00 +23°C° 1 mm 1 m/S 670 mmHg 92%
    22:00 +23°C° 1 mm 1 m/S 670 mmHg 92%
    23:00 +23°C° 1.1 mm 1 m/S 670 mmHg 92%

    21 Januar, Dienstag

    Zeit Temperatur Niederschläge Wind Luftdruck Luftfeuchtigkeit
    00:00 +23°C° 1.1 mm 1 m/S 669 mmHg 92%
    01:00 +23°C° 1.1 mm 1 m/S 669 mmHg 92%
    02:00 +21°C° 0.8 mm 0 m/S 669 mmHg 92%
    03:00 +21°C° 0.8 mm 0 m/S 669 mmHg 92%
    04:00 +20°C° 0.8 mm 0 m/S 669 mmHg 93%
    05:00 +20°C° 0.9 mm 0 m/S 669 mmHg 93%
    06:00 +20°C° 0.9 mm 0 m/S 669 mmHg 94%
    07:00 +20°C° 0.9 mm 0 m/S 670 mmHg 95%
    08:00 +20°C° 1.1 mm 0 m/S 670 mmHg 96%
    09:00 +21°C° 1.1 mm 0 m/S 671 mmHg 96%
    10:00 +21°C° 1.1 mm 0 m/S 671 mmHg 96%
    11:00 +21°C° 1.4 mm 0 m/S 670 mmHg 96%
    12:00 +23°C° 1.4 mm 1 m/S 670 mmHg 96%
    13:00 +23°C° 1.4 mm 1 m/S 670 mmHg 96%
    14:00 +23°C° 0.6 mm 1 m/S 669 mmHg 95%
    15:00 +21°C° 0.6 mm 0 m/S 669 mmHg 94%
    16:00 +22°C° 0.6 mm 0 m/S 668 mmHg 94%
    17:00 +21°C° 0.3 mm 0 m/S 669 mmHg 94%
    18:00 +21°C° 0.3 mm 0 m/S 669 mmHg 94%
    19:00 +20°C° 0.3 mm 0 m/S 669 mmHg 95%
    20:00 +20°C° 0.1 mm 0 m/S 670 mmHg 94%
    21:00 +20°C° 0.1 mm 0 m/S 670 mmHg 93%
    22:00 +20°C° 0.1 mm 0 m/S 671 mmHg 92%
    23:00 +20°C° 0.1 mm 0 m/S 671 mmHg 92%

    22 Januar, Mittwoch

    Zeit Temperatur Niederschläge Wind Luftdruck Luftfeuchtigkeit
    00:00 +19°C° 0.1 mm 0 m/S 670 mmHg 92%
    01:00 +19°C° 0.1 mm 0 m/S 670 mmHg 92%
    02:00 +19°C° 0.1 mm 0 m/S 670 mmHg 93%
    03:00 +19°C° 0.1 mm 0 m/S 669 mmHg 93%
    04:00 +19°C° 0.1 mm 0 m/S 669 mmHg 93%
    05:00 +19°C° 0 mm 0 m/S 670 mmHg 92%
    06:00 +19°C° 0 mm 0 m/S 670 mmHg 91%
    07:00 +19°C° 0 mm 0 m/S 670 mmHg 91%
    08:00 +21°C° 0.1 mm 0 m/S 671 mmHg 87%
    09:00 +22°C° 0.1 mm 0 m/S 671 mmHg 84%
    10:00 +23°C° 0.1 mm 0 m/S 672 mmHg 80%
    11:00 +26°C° 0.4 mm 1 m/S 671 mmHg 80%
    12:00 +26°C° 0.4 mm 1 m/S 671 mmHg 79%
    13:00 +27°C° 0.4 mm 1 m/S 670 mmHg 78%
    14:00 +26°C° 0.6 mm 1 m/S 669 mmHg 81%
    15:00 +26°C° 0.6 mm 1 m/S 669 mmHg 84%
    16:00 +25°C° 0.6 mm 1 m/S 668 mmHg 86%
    17:00 +24°C° 0.8 mm 1 m/S 668 mmHg 89%
    18:00 +23°C° 0.8 mm 1 m/S 669 mmHg 92%
    19:00 +22°C° 0.8 mm 1 m/S 669 mmHg 95%
    20:00 +22°C° 0.4 mm 1 m/S 669 mmHg 95%
    21:00 +20°C° 0.4 mm 0 m/S 670 mmHg 95%
    22:00 +20°C° 0.4 mm 0 m/S 671 mmHg 95%
    23:00 +20°C° 0.2 mm 0 m/S 670 mmHg 96%
    Mehr zeigen